AMX201 MMMX-MMAA

Flight info

Callsign AMX201
Flight time 0h 36m
Altitude 26000
Route TEVOS2A TEVOS UT116 ANALU ANALU1B
Aircraft B738/M-SDE2E3FGHIRWXY/LB1

Departure

Time 2026-04-20 00:15
Airport Mexico City Benito Juárez International Airport (MMMX)

Arrival

Time 2026-04-20 00:51
Airport General Juan N. Álvarez International Airport (MMAA)
Time Latitude Longitude Altitude Speed Heading
2026-04-20 00:02 19.42424 -99.07777 7302 ft 0 kts 239°
2026-04-20 00:09 19.42432 -99.07762 7302 ft 4 kts 243°
2026-04-20 00:09 19.42443 -99.07736 7302 ft 4 kts 252°
2026-04-20 00:09 19.42449 -99.07709 7302 ft 4 kts 274°
2026-04-20 00:10 19.42441 -99.07686 7302 ft 3 kts 327°
2026-04-20 00:10 19.42435 -99.07682 7302 ft 0 kts 329°
2026-04-20 00:11 19.42436 -99.07682 7302 ft 0 kts 329°
2026-04-20 00:12 19.42457 -99.07696 7302 ft 8 kts 329°
2026-04-20 00:12 19.42527 -99.07746 7302 ft 14 kts 309°
2026-04-20 00:12 19.42536 -99.07853 7302 ft 16 kts 262°
2026-04-20 00:12 19.42507 -99.07971 7302 ft 17 kts 249°
2026-04-20 00:13 19.42452 -99.08090 7302 ft 19 kts 242°
2026-04-20 00:13 19.42413 -99.08215 7302 ft 18 kts 305°
2026-04-20 00:13 19.42522 -99.08287 7302 ft 19 kts 336°
2026-04-20 00:13 19.42642 -99.08349 7302 ft 19 kts 331°
2026-04-20 00:14 19.42760 -99.08403 7302 ft 19 kts
2026-04-20 00:14 19.42856 -99.08307 7303 ft 30 kts 59°
2026-04-20 00:14 19.43128 -99.07823 7303 ft 118 kts 59°
2026-04-20 00:14 19.43666 -99.06867 7357 ft 179 kts 58°
2026-04-20 00:15 19.44289 -99.05719 8398 ft 179 kts 57°
2026-04-20 00:15 19.44930 -99.04545 9383 ft 190 kts 56°
2026-04-20 00:15 19.45659 -99.03348 10272 ft 199 kts 55°
2026-04-20 00:15 19.46456 -99.02080 10825 ft 220 kts 57°
2026-04-20 00:16 19.47352 -99.00619 11060 ft 253 kts 58°
2026-04-20 00:16 19.48353 -98.98964 11378 ft 281 kts 58°
2026-04-20 00:16 19.49447 -98.97139 11905 ft 301 kts 62°
2026-04-20 00:16 19.49970 -98.95007 13076 ft 301 kts 90°
2026-04-20 00:17 19.49549 -98.92840 14133 ft 306 kts 115°
2026-04-20 00:17 19.48281 -98.91020 15130 ft 312 kts 137°
2026-04-20 00:17 19.46501 -98.89659 16053 ft 319 kts 149°
2026-04-20 00:17 19.44546 -98.88503 16998 ft 325 kts 152°
2026-04-20 00:18 19.42534 -98.87373 17889 ft 331 kts 152°
2026-04-20 00:18 19.40452 -98.86181 18318 ft 353 kts 151°
2026-04-20 00:18 19.38232 -98.84875 18648 ft 374 kts 150°
2026-04-20 00:18 19.35942 -98.83500 19357 ft 382 kts 150°
2026-04-20 00:19 19.33552 -98.82268 20201 ft 384 kts 163°
2026-04-20 00:19 19.30911 -98.81891 21006 ft 386 kts 182°
2026-04-20 00:19 19.28217 -98.82050 21752 ft 390 kts 185°
2026-04-20 00:19 19.25485 -98.82267 22317 ft 399 kts 185°
2026-04-20 00:20 19.22657 -98.82475 22540 ft 415 kts 184°
2026-04-20 00:20 19.19746 -98.82661 22971 ft 423 kts 184°
2026-04-20 00:20 19.16811 -98.82833 23674 ft 422 kts 184°
2026-04-20 00:20 19.13889 -98.83003 24487 ft 418 kts 184°
2026-04-20 00:21 19.10998 -98.83172 25363 ft 414 kts 184°
2026-04-20 00:21 19.08134 -98.83340 25940 ft 412 kts 185°
2026-04-20 00:21 19.05290 -98.83509 26198 ft 410 kts 185°
2026-04-20 00:21 19.02434 -98.83679 26200 ft 411 kts 185°
2026-04-20 00:22 18.99581 -98.83848 26206 ft 410 kts 185°
2026-04-20 00:22 18.96728 -98.84016 26203 ft 410 kts 185°
2026-04-20 00:22 18.93915 -98.84191 26200 ft 410 kts 186°
2026-04-20 00:22 18.91047 -98.84535 26199 ft 410 kts 189°
2026-04-20 00:23 18.88264 -98.84989 26176 ft 410 kts 191°
2026-04-20 00:23 18.85445 -98.85482 26139 ft 411 kts 191°
2026-04-20 00:23 18.82624 -98.85970 26134 ft 410 kts 191°
2026-04-20 00:23 18.79807 -98.86444 26132 ft 410 kts 190°
2026-04-20 00:24 18.76986 -98.86906 26126 ft 410 kts 190°
2026-04-20 00:24 18.74165 -98.87359 26119 ft 410 kts 190°
2026-04-20 00:24 18.71344 -98.87810 26121 ft 410 kts 189°
2026-04-20 00:24 18.68525 -98.88258 26120 ft 410 kts 190°
2026-04-20 00:25 18.65709 -98.88706 26119 ft 410 kts 190°
2026-04-20 00:25 18.62886 -98.89156 26119 ft 410 kts 190°
2026-04-20 00:25 18.60067 -98.89607 26120 ft 410 kts 190°
2026-04-20 00:25 18.57255 -98.90062 26120 ft 410 kts 190°
2026-04-20 00:26 18.55385 -98.90365 26119 ft 410 kts 190°
2026-04-20 00:26 18.52570 -98.90821 26117 ft 410 kts 190°
2026-04-20 00:26 18.49750 -98.91277 26117 ft 410 kts 190°
2026-04-20 00:26 18.46925 -98.91734 26115 ft 410 kts 190°
2026-04-20 00:27 18.44105 -98.92189 26114 ft 411 kts 190°
2026-04-20 00:27 18.41316 -98.92826 26106 ft 410 kts 199°
2026-04-20 00:27 18.38638 -98.93846 26112 ft 409 kts 202°
2026-04-20 00:27 18.36002 -98.94956 26111 ft 409 kts 203°
2026-04-20 00:28 18.33367 -98.96088 26105 ft 409 kts 203°
2026-04-20 00:28 18.30728 -98.97211 26116 ft 408 kts 202°
2026-04-20 00:28 18.28087 -98.98317 26112 ft 408 kts 202°
2026-04-20 00:28 18.25441 -98.99407 26110 ft 408 kts 202°
2026-04-20 00:29 18.22793 -99.00487 26105 ft 408 kts 202°
2026-04-20 00:29 18.20145 -99.01560 26106 ft 408 kts 202°
2026-04-20 00:29 18.17502 -99.02628 26106 ft 408 kts 202°
2026-04-20 00:29 18.14849 -99.03699 26098 ft 408 kts 202°
2026-04-20 00:30 18.12195 -99.04769 26101 ft 409 kts 202°
2026-04-20 00:30 18.09539 -99.05840 26101 ft 409 kts 202°
2026-04-20 00:30 18.06911 -99.06899 26083 ft 398 kts 202°
2026-04-20 00:30 18.04362 -99.07927 25881 ft 388 kts 202°
2026-04-20 00:31 18.01870 -99.08932 25610 ft 380 kts 202°
2026-04-20 00:31 17.99419 -99.09923 25217 ft 376 kts 202°
2026-04-20 00:31 17.96993 -99.10903 24835 ft 371 kts 201°
2026-04-20 00:31 17.94611 -99.11881 24459 ft 364 kts 201°
2026-04-20 00:32 17.92265 -99.12834 24080 ft 359 kts 201°
2026-04-20 00:32 17.89934 -99.13764 23694 ft 358 kts 201°
2026-04-20 00:32 17.87608 -99.14688 23319 ft 357 kts 201°
2026-04-20 00:32 17.85274 -99.15618 22944 ft 363 kts 201°
2026-04-20 00:33 17.83122 -99.16479 22602 ft 372 kts 201°
2026-04-20 00:33 17.80695 -99.17452 22190 ft 372 kts 201°
2026-04-20 00:33 17.78484 -99.18343 21820 ft 367 kts 201°
2026-04-20 00:33 17.76158 -99.19286 21485 ft 359 kts 200°
2026-04-20 00:34 17.73844 -99.20213 21153 ft 353 kts 200°
2026-04-20 00:34 17.71563 -99.21128 20779 ft 349 kts 200°
2026-04-20 00:34 17.69307 -99.22031 20410 ft 345 kts 200°
2026-04-20 00:34 17.67075 -99.22923 20055 ft 341 kts 200°
2026-04-20 00:35 17.64893 -99.23863 19703 ft 339 kts 205°
2026-04-20 00:35 17.62802 -99.25022 19336 ft 340 kts 208°
2026-04-20 00:35 17.60731 -99.26246 18985 ft 346 kts 208°
2026-04-20 00:35 17.58598 -99.27508 18616 ft 356 kts 208°
2026-04-20 00:36 17.56444 -99.28773 18229 ft 352 kts 208°
2026-04-20 00:36 17.54324 -99.30013 17848 ft 347 kts 208°
2026-04-20 00:36 17.52227 -99.31232 17481 ft 342 kts 208°
2026-04-20 00:36 17.50154 -99.32432 17124 ft 338 kts 208°
2026-04-20 00:37 17.48070 -99.33529 16755 ft 333 kts 200°
2026-04-20 00:37 17.45899 -99.34308 16419 ft 328 kts 195°
2026-04-20 00:37 17.43714 -99.34978 16064 ft 327 kts 194°
2026-04-20 00:37 17.41527 -99.35634 15726 ft 328 kts 194°
2026-04-20 00:38 17.39322 -99.36307 15373 ft 334 kts 195°
2026-04-20 00:38 17.37072 -99.37012 15015 ft 339 kts 195°
2026-04-20 00:38 17.34824 -99.37728 14637 ft 336 kts 195°
2026-04-20 00:38 17.32599 -99.38442 14217 ft 334 kts 195°
2026-04-20 00:39 17.30391 -99.39155 13869 ft 330 kts 195°
2026-04-20 00:39 17.28215 -99.39861 13535 ft 324 kts 196°
2026-04-20 00:39 17.26078 -99.40564 13181 ft 321 kts 195°
2026-04-20 00:39 17.23961 -99.41255 12838 ft 318 kts 195°
2026-04-20 00:40 17.21857 -99.41940 12473 ft 315 kts 195°
2026-04-20 00:40 17.19779 -99.42622 12157 ft 313 kts 195°
2026-04-20 00:40 17.17684 -99.43298 11812 ft 318 kts 195°
2026-04-20 00:40 17.15557 -99.43981 11438 ft 322 kts 196°
2026-04-20 00:41 17.13411 -99.44679 11008 ft 324 kts 195°
2026-04-20 00:41 17.11255 -99.45377 10566 ft 324 kts 196°
2026-04-20 00:41 17.09103 -99.46079 10131 ft 323 kts 196°
2026-04-20 00:41 17.06976 -99.46768 9931 ft 313 kts 196°
2026-04-20 00:42 17.04949 -99.47424 9912 ft 298 kts 196°
2026-04-20 00:42 17.03033 -99.48045 9732 ft 287 kts 196°
2026-04-20 00:42 17.01130 -99.48661 9410 ft 278 kts 196°
2026-04-20 00:42 16.99315 -99.49248 9051 ft 271 kts 196°
2026-04-20 00:43 16.97558 -99.49816 8683 ft 265 kts 196°
2026-04-20 00:43 16.95811 -99.50380 8300 ft 261 kts 196°
2026-04-20 00:43 16.94092 -99.50936 7927 ft 256 kts 196°
2026-04-20 00:43 16.92401 -99.51481 7551 ft 252 kts 196°
2026-04-20 00:44 16.90740 -99.52018 7175 ft 249 kts 196°
2026-04-20 00:44 16.89099 -99.52548 6799 ft 245 kts 196°
2026-04-20 00:44 16.87475 -99.53072 6423 ft 243 kts 197°
2026-04-20 00:44 16.85875 -99.53590 6051 ft 239 kts 196°
2026-04-20 00:45 16.84294 -99.54101 5666 ft 237 kts 196°
2026-04-20 00:45 16.82730 -99.54605 5299 ft 234 kts 196°
2026-04-20 00:45 16.81185 -99.55104 4925 ft 232 kts 196°
2026-04-20 00:45 16.79646 -99.55600 4556 ft 230 kts 196°
2026-04-20 00:46 16.78126 -99.56094 4174 ft 229 kts 197°
2026-04-20 00:46 16.76616 -99.56602 3813 ft 226 kts 197°
2026-04-20 00:46 16.75152 -99.57098 3462 ft 218 kts 197°
2026-04-20 00:46 16.73740 -99.57577 3096 ft 209 kts 197°
2026-04-20 00:47 16.72398 -99.58082 2830 ft 198 kts 209°
2026-04-20 00:47 16.71485 -99.59079 2667 ft 190 kts 242°
2026-04-20 00:47 16.71269 -99.60390 2501 ft 182 kts 280°
2026-04-20 00:47 16.71533 -99.61648 2314 ft 177 kts 281°
2026-04-20 00:48 16.71835 -99.62882 2088 ft 173 kts 285°
2026-04-20 00:48 16.72184 -99.64052 1866 ft 164 kts 287°
2026-04-20 00:48 16.72527 -99.65157 1695 ft 156 kts 287°
2026-04-20 00:48 16.72856 -99.66218 1528 ft 152 kts 287°
2026-04-20 00:49 16.73198 -99.67255 1310 ft 152 kts 288°
2026-04-20 00:49 16.73539 -99.68295 1102 ft 151 kts 286°
2026-04-20 00:49 16.73851 -99.69329 893 ft 148 kts 287°
2026-04-20 00:49 16.74154 -99.70348 688 ft 148 kts 286°
2026-04-20 00:50 16.74472 -99.71383 468 ft 150 kts 287°
2026-04-20 00:50 16.74787 -99.72426 241 ft 151 kts 287°
2026-04-20 00:50 16.75107 -99.73453 45 ft 146 kts 287°
2026-04-20 00:50 16.75388 -99.74352 19 ft 103 kts 289°
2026-04-20 00:51 16.75549 -99.74865 18 ft 58 kts 289°
2026-04-20 00:51 16.75718 -99.75050 16 ft 23 kts 329°
2026-04-20 00:51 16.75837 -99.75157 19 ft 23 kts 299°
2026-04-20 00:51 16.75883 -99.75298 17 ft 14 kts 288°
2026-04-20 00:52 16.75924 -99.75351 17 ft 10 kts 346°
2026-04-20 00:52 16.76005 -99.75333 19 ft 13 kts 17°
2026-04-20 00:52 16.76048 -99.75319 18 ft 0 kts 19°